Time,TemperatureF,DewpointF,PressureIn,WindDirection,WindDirectionDegrees,WindSpeedMPH,WindSpeedGustMPH,Humidity,HourlyPrecipIn,Conditions,Clouds,dailyrainin,SoftwareType,DateUTC
2013-02-11 00:02:00,45.0,44.0,29.69,SSW,194,4.0,10.0,95,0.00,,,0.07,,2013-02-11 05:02:00,
2013-02-11 00:12:00,45.0,44.0,29.69,SSW,200,7.0,11.0,96,0.00,,,0.07,,2013-02-11 05:12:00,
2013-02-11 00:22:00,45.0,44.0,29.69,SSW,200,7.0,11.0,96,0.00,,,0.07,,2013-02-11 05:22:00,
2013-02-11 00:32:00,45.0,44.0,29.69,SSE,161,4.0,10.0,95,0.00,,,0.07,,2013-02-11 05:32:00,
2013-02-11 00:42:00,45.0,44.0,29.69,SSE,161,4.0,10.0,95,0.00,,,0.07,,2013-02-11 05:42:00,
2013-02-11 00:52:00,45.0,44.0,29.68,South,180,3.0,7.0,95,0.00,,,0.07,,2013-02-11 05:52:00,
2013-02-11 01:02:00,45.0,44.0,29.68,South,188,3.0,13.0,95,0.00,,,0.07,,2013-02-11 06:02:00,
2013-02-11 01:12:00,45.0,44.0,29.68,South,188,3.0,13.0,95,0.00,,,0.07,,2013-02-11 06:12:00,
2013-02-11 01:22:00,45.0,44.0,29.67,SSW,209,3.0,7.0,95,0.00,,,0.07,,2013-02-11 06:22:00,
2013-02-11 01:32:00,44.0,43.0,29.67,South,169,2.0,6.0,95,0.00,,,0.07,,2013-02-11 06:32:00,
2013-02-11 01:42:00,44.0,43.0,29.66,South,176,1.0,9.0,95,0.00,,,0.07,,2013-02-11 06:42:00,
2013-02-11 01:52:00,44.0,43.0,29.66,South,176,1.0,9.0,95,0.00,,,0.07,,2013-02-11 06:52:00,
2013-02-11 02:02:00,44.0,43.0,29.66,SSW,196,2.0,7.0,95,0.00,,,0.07,,2013-02-11 07:02:00,
2013-02-11 02:12:00,45.0,44.0,29.65,SSE,159,3.0,8.0,96,0.00,,,0.07,,2013-02-11 07:12:00,
2013-02-11 02:22:00,45.0,44.0,29.65,SSE,159,3.0,8.0,96,0.00,,,0.07,,2013-02-11 07:22:00,
2013-02-11 02:32:00,45.0,44.0,29.65,SW,215,2.0,7.0,95,0.00,,,0.07,,2013-02-11 07:32:00,
2013-02-11 02:42:00,46.0,45.0,29.65,SSW,213,7.0,12.0,95,0.00,,,0.07,,2013-02-11 07:42:00,
2013-02-11 02:52:00,46.0,45.0,29.65,SSW,213,7.0,12.0,95,0.00,,,0.07,,2013-02-11 07:52:00,
2013-02-11 03:01:00,46.0,44.0,29.65,South,191,7.0,12.0,94,0.00,,,0.07,,2013-02-11 08:01:00,
2013-02-11 03:11:00,46.0,44.0,29.65,South,191,7.0,12.0,94,0.00,,,0.07,,2013-02-11 08:11:00,
2013-02-11 03:21:00,45.0,43.0,29.64,SSE,150,5.0,13.0,94,0.00,,,0.07,,2013-02-11 08:21:00,
2013-02-11 03:32:00,45.0,43.0,29.64,SSW,210,4.0,12.0,94,0.00,,,0.07,,2013-02-11 08:32:00,
2013-02-11 03:42:00,45.0,43.0,29.64,SSW,210,4.0,12.0,94,0.00,,,0.07,,2013-02-11 08:42:00,
2013-02-11 03:52:00,45.0,43.0,29.64,SSW,210,4.0,12.0,94,0.00,,,0.07,,2013-02-11 08:52:00,
2013-02-11 04:02:00,45.0,43.0,29.63,South,183,8.0,17.0,94,0.00,,,0.07,,2013-02-11 09:02:00,
2013-02-11 04:12:00,45.0,43.0,29.63,South,183,8.0,17.0,94,0.00,,,0.07,,2013-02-11 09:12:00,
2013-02-11 04:22:00,45.0,43.0,29.62,South,188,9.0,13.0,94,0.00,,,0.07,,2013-02-11 09:22:00,
2013-02-11 04:32:00,45.0,43.0,29.62,South,180,9.0,14.0,93,0.00,,,0.07,,2013-02-11 09:32:00,
2013-02-11 04:42:00,45.0,43.0,29.62,South,180,9.0,14.0,93,0.00,,,0.07,,2013-02-11 09:42:00,
2013-02-11 04:51:00,46.0,44.0,29.62,SW,219,6.0,15.0,91,0.00,,,0.07,,2013-02-11 09:51:00,
2013-02-11 05:02:00,47.0,44.0,29.61,WSW,246,7.0,18.0,90,0.00,,,0.07,,2013-02-11 10:02:00,
2013-02-11 05:11:00,47.0,44.0,29.61,WSW,246,7.0,18.0,90,0.00,,,0.07,,2013-02-11 10:11:00,
2013-02-11 05:21:00,47.0,45.0,29.61,SW,236,4.0,13.0,91,0.00,,,0.07,,2013-02-11 10:21:00,
2013-02-11 05:32:00,46.0,43.0,29.62,WSW,257,5.0,10.0,90,0.00,,,0.07,,2013-02-11 10:32:00,
2013-02-11 05:42:00,46.0,43.0,29.62,WSW,257,5.0,10.0,90,0.00,,,0.07,,2013-02-11 10:42:00,
2013-02-11 05:52:00,45.0,42.0,29.63,SW,226,6.0,17.0,89,0.00,,,0.07,,2013-02-11 10:52:00,
2013-02-11 06:02:00,46.0,39.0,29.64,WSW,253,11.0,23.0,77,0.00,,,0.07,,2013-02-11 11:02:00,
2013-02-11 06:11:00,46.0,39.0,29.64,WSW,253,11.0,23.0,77,0.00,,,0.07,,2013-02-11 11:11:00,
2013-02-11 06:22:00,46.0,39.0,29.64,WSW,253,11.0,23.0,77,0.00,,,0.07,,2013-02-11 11:22:00,
2013-02-11 06:32:00,42.0,35.0,29.66,SW,231,12.0,23.0,76,0.00,,,0.07,,2013-02-11 11:32:00,
2013-02-11 06:42:00,42.0,35.0,29.66,SW,231,12.0,23.0,76,0.00,,,0.07,,2013-02-11 11:42:00,
2013-02-11 06:52:00,41.0,34.0,29.67,WSW,253,8.0,19.0,77,0.00,,,0.07,,2013-02-11 11:52:00,
2013-02-11 07:03:00,41.0,33.0,29.67,West,277,15.0,28.0,74,0.00,,,0.07,,2013-02-11 12:03:00,
2013-02-11 07:12:00,41.0,33.0,29.67,West,277,15.0,28.0,74,0.00,,,0.07,,2013-02-11 12:12:00,
2013-02-11 07:22:00,40.0,32.0,29.68,SW,232,13.0,25.0,74,0.00,,,0.07,,2013-02-11 12:22:00,
2013-02-11 07:32:00,40.0,32.0,29.68,WSW,240,13.0,22.0,74,0.00,,,0.07,,2013-02-11 12:32:00,
2013-02-11 07:42:00,39.0,32.0,29.68,WSW,253,9.0,21.0,76,0.00,,,0.07,,2013-02-11 12:42:00,
2013-02-11 07:52:00,39.0,32.0,29.68,WSW,253,9.0,21.0,76,0.00,,,0.07,,2013-02-11 12:52:00,
2013-02-11 08:02:00,39.0,33.0,29.68,SW,221,8.0,14.0,79,0.00,,,0.07,,2013-02-11 13:02:00,
2013-02-11 08:12:00,39.0,33.0,29.69,WSW,239,10.0,19.0,79,0.00,,,0.07,,2013-02-11 13:12:00,
2013-02-11 08:22:00,39.0,33.0,29.69,WSW,239,10.0,19.0,79,0.00,,,0.07,,2013-02-11 13:22:00,
2013-02-11 08:33:00,38.0,31.0,29.70,SW,221,13.0,22.0,77,0.00,,,0.07,,2013-02-11 13:33:00,
2013-02-11 08:42:00,38.0,31.0,29.70,SW,221,13.0,22.0,77,0.00,,,0.07,,2013-02-11 13:42:00,
2013-02-11 08:52:00,38.0,30.0,29.71,WSW,252,18.0,31.0,73,0.00,,,0.07,,2013-02-11 13:52:00,
2013-02-11 09:02:00,37.0,29.0,29.72,WSW,249,17.0,27.0,74,0.00,,,0.07,,2013-02-11 14:02:00,
2013-02-11 09:12:00,37.0,29.0,29.72,WSW,249,17.0,27.0,74,0.00,,,0.07,,2013-02-11 14:12:00,
2013-02-11 09:22:00,37.0,30.0,29.72,West,261,14.0,31.0,75,0.01,,,0.08,,2013-02-11 14:22:00,
2013-02-11 09:33:00,36.0,29.0,29.72,WSW,254,13.0,22.0,75,0.01,,,0.08,,2013-02-11 14:33:00,
2013-02-11 09:42:00,36.0,29.0,29.72,WSW,254,13.0,22.0,75,0.01,,,0.08,,2013-02-11 14:42:00,
2013-02-11 09:52:00,36.0,29.0,29.73,West,280,11.0,23.0,77,0.01,,,0.08,,2013-02-11 14:52:00,
2013-02-11 10:02:00,36.0,29.0,29.73,SW,231,13.0,21.0,77,0.01,,,0.08,,2013-02-11 15:02:00,
2013-02-11 10:11:00,36.0,29.0,29.73,SW,231,13.0,21.0,77,0.01,,,0.08,,2013-02-11 15:11:00,
2013-02-11 10:22:00,35.0,29.0,29.75,WSW,250,12.0,27.0,78,0.00,,,0.08,,2013-02-11 15:22:00,
2013-02-11 10:32:00,35.0,28.0,29.76,SW,227,14.0,26.0,76,0.00,,,0.08,,2013-02-11 15:32:00,
2013-02-11 10:42:00,35.0,28.0,29.76,SW,236,14.0,24.0,75,0.00,,,0.08,,2013-02-11 15:42:00,
2013-02-11 10:52:00,35.0,28.0,29.76,SW,236,14.0,24.0,75,0.00,,,0.08,,2013-02-11 15:52:00,
2013-02-11 11:02:00,35.0,29.0,29.77,SSW,205,11.0,21.0,78,0.00,,,0.08,,2013-02-11 16:02:00,
2013-02-11 11:12:00,35.0,29.0,29.77,SSW,205,11.0,21.0,78,0.00,,,0.08,,2013-02-11 16:12:00,
2013-02-11 11:22:00,35.0,29.0,29.76,WSW,243,14.0,25.0,77,0.00,,,0.08,,2013-02-11 16:22:00,
2013-02-11 11:32:00,35.0,29.0,29.76,WSW,245,13.0,28.0,77,0.00,,,0.08,,2013-02-11 16:32:00,
2013-02-11 11:42:00,35.0,28.0,29.76,SW,216,14.0,24.0,75,0.00,,,0.08,,2013-02-11 16:42:00,
2013-02-11 11:52:00,35.0,28.0,29.76,SW,216,14.0,24.0,75,0.00,,,0.08,,2013-02-11 16:52:00,
2013-02-11 12:02:00,35.0,28.0,29.77,West,259,13.0,33.0,76,0.00,,,0.08,,2013-02-11 17:02:00,
2013-02-11 12:12:00,35.0,28.0,29.77,West,259,13.0,33.0,76,0.00,,,0.08,,2013-02-11 17:12:00,
2013-02-11 12:22:00,34.0,27.0,29.78,SW,217,14.0,29.0,75,0.00,,,0.08,,2013-02-11 17:22:00,
2013-02-11 12:32:00,34.0,27.0,29.78,WSW,254,14.0,25.0,74,0.00,,,0.08,,2013-02-11 17:32:00,
2013-02-11 12:42:00,34.0,27.0,29.78,WSW,254,14.0,25.0,74,0.00,,,0.08,,2013-02-11 17:42:00,
2013-02-11 12:52:00,34.0,26.0,29.78,WSW,242,18.0,32.0,73,0.00,,,0.08,,2013-02-11 17:52:00,
2013-02-11 13:02:00,34.0,27.0,29.79,WSW,257,13.0,24.0,75,0.00,,,0.08,,2013-02-11 18:02:00,
2013-02-11 13:11:00,34.0,27.0,29.79,WSW,257,13.0,24.0,75,0.00,,,0.08,,2013-02-11 18:11:00,
2013-02-11 13:22:00,34.0,28.0,29.79,WSW,248,13.0,25.0,78,0.00,,,0.08,,2013-02-11 18:22:00,
2013-02-11 13:32:00,34.0,28.0,29.79,SW,218,14.0,22.0,77,0.00,,,0.08,,2013-02-11 18:32:00,
2013-02-11 13:42:00,34.0,28.0,29.79,SW,218,14.0,22.0,77,0.00,,,0.08,,2013-02-11 18:42:00,
2013-02-11 13:53:00,34.0,27.0,29.79,SW,220,13.0,27.0,76,0.00,,,0.08,,2013-02-11 18:53:00,
2013-02-11 14:02:00,34.0,27.0,29.79,West,273,16.0,26.0,74,0.00,,,0.08,,2013-02-11 19:02:00,
2013-02-11 14:12:00,34.0,27.0,29.79,West,273,16.0,26.0,74,0.00,,,0.08,,2013-02-11 19:12:00,
2013-02-11 14:22:00,34.0,27.0,29.80,WSW,244,16.0,24.0,74,0.00,,,0.08,,2013-02-11 19:22:00,
2013-02-11 14:32:00,34.0,27.0,29.80,WSW,256,18.0,27.0,75,0.00,,,0.08,,2013-02-11 19:32:00,
2013-02-11 14:42:00,34.0,27.0,29.80,WSW,256,18.0,27.0,75,0.00,,,0.08,,2013-02-11 19:42:00,
2013-02-11 14:51:00,34.0,28.0,29.80,SW,231,13.0,23.0,78,0.00,,,0.08,,2013-02-11 19:51:00,
2013-02-11 15:02:00,34.0,28.0,29.80,SW,231,16.0,26.0,78,0.00,,,0.08,,2013-02-11 20:02:00,
2013-02-11 15:11:00,34.0,27.0,29.81,WSW,244,14.0,28.0,76,0.00,,,0.08,,2013-02-11 20:11:00,
2013-02-11 15:22:00,34.0,27.0,29.81,WSW,244,14.0,28.0,76,0.00,,,0.08,,2013-02-11 20:22:00,
2013-02-11 15:32:00,34.0,27.0,29.82,WSW,258,16.0,25.0,76,0.00,,,0.08,,2013-02-11 20:32:00,
2013-02-11 15:42:00,34.0,28.0,29.82,SW,236,15.0,27.0,77,0.00,,,0.08,,2013-02-11 20:42:00,
2013-02-11 15:52:00,34.0,28.0,29.82,SW,236,15.0,27.0,77,0.00,,,0.08,,2013-02-11 20:52:00,
2013-02-11 16:02:00,34.0,27.0,29.82,West,279,15.0,25.0,76,0.00,,,0.08,,2013-02-11 21:02:00,
2013-02-11 16:12:00,34.0,27.0,29.83,WSW,258,15.0,28.0,76,0.00,,,0.08,,2013-02-11 21:12:00,
2013-02-11 16:22:00,34.0,27.0,29.83,WSW,258,15.0,28.0,76,0.00,,,0.08,,2013-02-11 21:22:00,
2013-02-11 16:32:00,34.0,27.0,29.84,SW,234,16.0,28.0,75,0.00,,,0.08,,2013-02-11 21:32:00,
2013-02-11 16:42:00,34.0,27.0,29.84,SW,234,16.0,28.0,75,0.00,,,0.08,,2013-02-11 21:42:00,
2013-02-11 16:52:00,34.0,27.0,29.84,SW,231,13.0,26.0,75,0.00,,,0.08,,2013-02-11 21:52:00,
2013-02-11 17:02:00,34.0,27.0,29.84,SW,231,13.0,26.0,75,0.00,,,0.08,,2013-02-11 22:02:00,
2013-02-11 17:12:00,34.0,27.0,29.86,West,261,10.0,23.0,76,0.00,,,0.08,,2013-02-11 22:12:00,
2013-02-11 17:22:00,34.0,27.0,29.86,West,261,10.0,23.0,76,0.00,,,0.08,,2013-02-11 22:22:00,
2013-02-11 17:32:00,34.0,27.0,29.86,SW,233,14.0,23.0,75,0.00,,,0.03,,2013-02-11 22:32:00,
2013-02-11 17:42:00,34.0,27.0,29.86,SW,233,14.0,23.0,75,0.00,,,0.03,,2013-02-11 22:42:00,
2013-02-11 17:52:00,34.0,27.0,29.86,WSW,248,14.0,23.0,75,0.00,,,0.03,,2013-02-11 22:52:00,
2013-02-11 18:02:00,34.0,27.0,29.87,WSW,238,11.0,24.0,76,0.00,,,0.03,,2013-02-11 23:02:00,
2013-02-11 18:11:00,34.0,27.0,29.87,WSW,238,11.0,24.0,76,0.00,,,0.03,,2013-02-11 23:11:00,
2013-02-11 18:22:00,33.0,26.0,29.88,WSW,245,14.0,27.0,75,0.00,,,0.03,,2013-02-11 23:22:00,
2013-02-11 18:32:00,33.0,26.0,29.89,West,259,12.0,31.0,76,0.00,,,0.01,,2013-02-11 23:32:00,
2013-02-11 18:42:00,33.0,26.0,29.89,West,259,12.0,31.0,76,0.00,,,0.01,,2013-02-11 23:42:00,
2013-02-11 18:52:00,33.0,27.0,29.89,West,273,10.0,19.0,77,0.00,,,0.01,,2013-02-11 23:52:00,
2013-02-11 19:02:00,33.0,27.0,29.90,WSW,244,13.0,22.0,77,0.00,,,0.01,,2013-02-12 00:02:00,
2013-02-11 19:12:00,33.0,27.0,29.90,WSW,244,13.0,22.0,77,0.00,,,0.01,,2013-02-12 00:12:00,
2013-02-11 19:22:00,33.0,27.0,29.90,SW,234,13.0,29.0,77,0.00,,,0.01,,2013-02-12 00:22:00,
2013-02-11 19:32:00,33.0,27.0,29.91,West,267,12.0,22.0,77,0.00,,,0.01,,2013-02-12 00:32:00,
2013-02-11 19:42:00,33.0,27.0,29.91,West,267,12.0,22.0,77,0.00,,,0.01,,2013-02-12 00:42:00,
2013-02-11 19:52:00,33.0,26.0,29.90,WSW,255,14.0,23.0,76,0.00,,,0.01,,2013-02-12 00:52:00,
2013-02-11 20:02:00,33.0,26.0,29.91,WSW,258,12.0,20.0,76,0.00,,,0.01,,2013-02-12 01:02:00,
2013-02-11 20:12:00,33.0,26.0,29.91,WSW,258,12.0,20.0,76,0.00,,,0.01,,2013-02-12 01:12:00,
2013-02-11 20:22:00,32.0,25.0,29.91,WSW,247,14.0,23.0,76,0.00,,,0.01,,2013-02-12 01:22:00,
2013-02-11 20:32:00,32.0,25.0,29.92,WSW,257,12.0,23.0,76,0.00,,,0.01,,2013-02-12 01:32:00,
2013-02-11 20:42:00,32.0,25.0,29.92,WSW,257,12.0,23.0,76,0.00,,,0.01,,2013-02-12 01:42:00,
2013-02-11 20:52:00,32.0,25.0,29.93,SW,225,12.0,26.0,76,0.00,,,0.01,,2013-02-12 01:52:00,
2013-02-11 21:02:00,32.0,26.0,29.93,WSW,250,10.0,22.0,77,0.00,,,0.01,,2013-02-12 02:02:00,
2013-02-11 21:12:00,32.0,26.0,29.93,WSW,250,10.0,22.0,77,0.00,,,0.01,,2013-02-12 02:12:00,
2013-02-11 21:22:00,32.0,26.0,29.93,WSW,251,8.0,18.0,78,0.00,,,0.01,,2013-02-12 02:22:00,
2013-02-11 21:32:00,32.0,26.0,29.94,SW,229,11.0,17.0,78,0.00,,,0.01,,2013-02-12 02:32:00,
2013-02-11 21:42:00,32.0,26.0,29.94,SW,229,11.0,17.0,78,0.00,,,0.01,,2013-02-12 02:42:00,
2013-02-11 21:52:00,32.0,26.0,29.94,WSW,240,12.0,21.0,79,0.00,,,0.01,,2013-02-12 02:52:00,
2013-02-11 22:02:00,32.0,25.0,29.95,West,272,16.0,25.0,76,0.00,,,0.01,,2013-02-12 03:02:00,
2013-02-11 22:11:00,32.0,25.0,29.95,West,272,16.0,25.0,76,0.00,,,0.01,,2013-02-12 03:11:00,
2013-02-11 22:21:00,31.0,24.0,29.96,West,259,12.0,19.0,75,0.00,,,0.01,,2013-02-12 03:21:00,
2013-02-11 22:32:00,32.0,25.0,29.96,West,273,15.0,23.0,75,0.00,,,0.01,,2013-02-12 03:32:00,
2013-02-11 22:42:00,32.0,25.0,29.96,West,273,15.0,23.0,75,0.00,,,0.01,,2013-02-12 03:42:00,
2013-02-11 22:51:00,31.0,25.0,29.96,WSW,242,10.0,17.0,77,0.00,,,0.01,,2013-02-12 03:51:00,
2013-02-11 23:01:00,31.0,25.0,29.96,SW,226,9.0,18.0,78,0.00,,,0.01,,2013-02-12 04:01:00,
2013-02-11 23:11:00,31.0,25.0,29.96,SW,226,9.0,18.0,78,0.00,,,0.01,,2013-02-12 04:11:00,
2013-02-11 23:21:00,31.0,25.0,29.96,West,267,10.0,20.0,77,0.00,,,0.01,,2013-02-12 04:21:00,
2013-02-11 23:32:00,31.0,24.0,29.96,WNW,290,17.0,24.0,76,0.00,,,0.01,,2013-02-12 04:32:00,
2013-02-11 23:42:00,31.0,24.0,29.96,WNW,290,17.0,24.0,76,0.00,,,0.01,,2013-02-12 04:42:00,
2013-02-11 23:51:00,31.0,25.0,29.96,WSW,252,10.0,17.0,77,0.00,,,0.01,,2013-02-12 04:51:00,